Location: Bratislava
(0.0000°N, 17.1167°E)
Time: 04:50:35
(UTC+01:00)

Meteor 2-8 Rocket - Pass Details

Date: 24 January 2021
Orbit: 937 x 957 km, 82.5° (Epoch: 06 March)

Event Time Altitude Azimuth Distance (km) Brightness Sun altitude
Rises 18:50:59 0° 2° (N) 3,603 7.3 -11.2°
Reaches altitude 10° 18:53:29 10° 4° (N) 2,663 6.6 -11.7°
Maximum altitude 18:59:32 68° 87° (E) 1,022 4.4 -13.2°
Drops below altitude 10° 19:05:37 10° 169° (SSE) 2,684 6.9 -14.6°
Sets 19:08:08 0° 171° (S) 3,633 7.6 -15.2°
